Find Starlink 34798

NORAD ID: 65063 Int'l Des: 2025-165 Owner: SPXS Country: US Constellation: starlink operational
LEOCIRCULARRETROGRADESSO

現在のビュー

3D地球を読み込み中...

About Starlink 34798

Starlink 34798 (NORAD 65063) is a starlink constellation satellite (v2 mini) launched Jul 31, 2025 by SPXS of US. It operates in LEO, CIRCULAR, RETROGRADE, SSO orbit with a mass of 575.00 kg.

次回通過

Passes for default location (London). Set your location on the main map for personalized predictions.

高度履歴

Loading altitude history...

軌道要素

1 65063U 25165H 26263.91670139 -.00021912 00000-0 -67834-3 0 9992
2 65063 97.2858 335.1402 0001578 95.9487 119.8200 15.33445262 5799
Epoch: Sep 20, 2026 • Age: 11 hours

現在のステータス

高度 468.5 km
遠地点 / 近地点 N/A
速度 7.63 km/s
衛星直下点 1.10°N, 23.44°E
打ち上げ日 Jul 31, 2025
運用期間 1.1 years
タイプ internet

技術仕様

分類 Payload
質量 575.00 kg
乾燥質量 530.00 kg
長さ 0.30 m
スパン 29.00 m
形状 ? Box + pan
製造者 SPXS
バスタイプ Starlink V2MO
フェーズステータス In Orbit
所有者/国 SPXS/US

Most Searched